Change the Weather History Date:

Wednesday, October 3, 2012

  Actual Average Record
Temperature  
Mean Temperature 42 °F 49 °F  
Max Temperature 50 °F 63 °F 93 °F (1922)
Min Temperature 33 °F 36 °F 21 °F (1989)
Degree Days  
Heating Degree Days 23 16  
Month to date heating degree days 41 46  
Since 1 July heating degree days 265 400  
Cooling Degree Days 0 0  
Month to date cooling degree days 0 0  
Year to date cooling degree days 591 418  
Moisture  
Dew Point 34 °F    
Average Humidity 83    
Maximum Humidity 100    
Minimum Humidity 66    
Precipitation  
Precipitation 0.60 in 0.05 in 0.80 in (2006)
Month to date precipitation 0.60 0.15  
Year to date precipitation 9.19 13.91  
Sea Level Pressure  
Sea Level Pressure 30.09 in    
Wind  
Wind Speed 13 mph (NNW)    
Max Wind Speed 25 mph    
Max Gust Speed 32 mph    
Visibility 4 miles    
Events Fog , Rain , Snow    
T = Trace of Precipitation, MM = Missing Value Source: NWS Daily Summary

Daily Weather History Graph

Daily Weather History Graph

Search for Another Location

Airport or City:

Trip Planner

Search our weather history database for the weather conditions in past years. The results will help you decide how hot, cold, wet, or windy it might be!

Date:

Astronomy

Oct. 03, 2012 Rise Set
Actual Time 6:53 AM MDT 6:25 PM MDT
Civil Twilight 6:23 AM MDT 6:56 PM MDT
Nautical Twilight 5:47 AM MDT 7:31 PM MDT
Astronomical Twilight 5:12 AM MDT 8:06 PM MDT
Moon 8:03 PM MDT (10/3) 10:33 AM MDT (10/3)
Length of Visible Light 12h 33m
Length of Day
11h 32m
Waning Gibbous, 88% of the Moon is Illuminated
Oct 3
Waning Gibbous
Oct 8
Last Quarter
Oct 15
New
Oct 21
First Quarter
Oct 29
Full

Hourly Weather History & Observations

Time (MDT) Temp. Windchill Dew Point Humidity Pressure Visibility Wind Dir Wind Speed Gust Speed Precip Events Conditions
12:56 AM 50.0 °F - 39.0 °F 66% 29.84 in 10.0 mi NE 8.1 mph - N/A   Partly Cloudy
1:56 AM 46.0 °F 41.0 °F 37.9 °F 73% 29.84 in 10.0 mi NE 10.4 mph - N/A   Mostly Cloudy
2:56 AM 46.9 °F - 37.9 °F 71% 29.85 in 10.0 mi NE 13.8 mph - N/A   Overcast
3:56 AM 46.0 °F 40.6 °F 37.0 °F 71% 29.85 in 10.0 mi NE 11.5 mph - 0.00 in   Overcast
5:56 AM 42.1 °F 32.8 °F 34.0 °F 73% 29.87 in 10.0 mi NNE 21.9 mph 29.9 mph N/A   Clear
6:44 AM 42.8 °F 37.0 °F 35.6 °F 76% 29.91 in 10.0 mi NNE 10.4 mph 21.9 mph N/A   Overcast
6:56 AM 41.0 °F 33.5 °F 36.0 °F 82% 29.92 in 10.0 mi NNE 13.8 mph - N/A   Overcast
7:18 AM 41.0 °F 33.5 °F 37.4 °F 87% 29.91 in 10.0 mi NNE 13.8 mph 20.7 mph N/A   Overcast
7:36 AM 41.0 °F 33.5 °F 37.4 °F 87% 29.92 in 10.0 mi NNE 13.8 mph - 0.00 in Rain Light Rain
7:56 AM 41.0 °F 33.5 °F 37.9 °F 89% 29.94 in 10.0 mi North 13.8 mph - 0.00 in   Overcast
8:56 AM 41.0 °F 34.7 °F 37.9 °F 89% 30.00 in 10.0 mi North 10.4 mph - 0.00 in Rain Light Rain
9:56 AM 39.0 °F 30.6 °F 37.9 °F 96% 30.02 in 6.0 mi North 15.0 mph - 0.04 in Rain Light Rain
10:32 AM 37.4 °F 29.3 °F 35.6 °F 93% 30.01 in 5.0 mi North 12.7 mph 21.9 mph 0.03 in Rain Rain
10:45 AM 37.4 °F 29.8 °F 35.6 °F 93% 30.02 in 4.0 mi North 11.5 mph - 0.05 in Rain Heavy Rain
10:56 AM 35.1 °F 27.9 °F 34.0 °F 96% 30.07 in 3.0 mi North 9.2 mph - 0.08 in Rain Rain
11:09 AM 33.8 °F 27.0 °F 33.8 °F 100% 30.03 in 3.0 mi North 8.1 mph - 0.03 in Rain Rain
11:36 AM 33.8 °F 27.7 °F 33.8 °F 100% 30.02 in 2.0 mi North 6.9 mph - 0.12 in Rain Rain
11:43 AM 33.8 °F 27.0 °F 33.8 °F 100% 30.03 in 3.0 mi North 8.1 mph - 0.13 in Rain Rain
11:46 AM 33.8 °F 27.0 °F 33.8 °F 100% 30.03 in 4.0 mi North 8.1 mph - 0.14 in Rain Rain
11:56 AM 33.1 °F 24.9 °F 32.0 °F 96% 30.11 in 3.0 mi NW 10.4 mph - 0.15 in Snow Light Snow
12:00 PM 33.8 °F 25.8 °F 32.0 °F 93% 30.06 in 1.8 mi NW 10.4 mph - 0.00 in Snow Light Snow
12:12 PM 33.8 °F 25.8 °F 32.0 °F 93% 30.07 in 1.0 mi NW 10.4 mph - 0.02 in Snow Light Snow
12:17 PM 33.8 °F 26.4 °F 32.0 °F 93% 30.07 in 0.8 mi NW 9.2 mph - 0.03 in Snow Light Snow
12:26 PM 33.8 °F 25.8 °F 32.0 °F 93% 30.06 in 0.8 mi NNW 10.4 mph - 0.04 in Snow Light Snow
12:40 PM 33.8 °F 25.8 °F 32.0 °F 93% 30.06 in 0.5 mi NNW 10.4 mph - 0.07 in Fog , Snow Snow
12:56 PM 33.1 °F 24.4 °F 32.0 °F 96% 30.12 in 0.8 mi NW 11.5 mph - 0.10 in Snow Light Snow
1:29 PM 33.8 °F 24.8 °F 32.0 °F 93% 30.05 in 1.2 mi North 12.7 mph - 0.05 in Snow Light Snow
1:56 PM 33.1 °F 23.9 °F 32.0 °F 96% 30.13 in 1.2 mi NNW 12.7 mph - 0.07 in Snow Light Snow
2:56 PM 33.1 °F 24.4 °F 32.0 °F 96% 30.14 in 1.2 mi NNW 11.5 mph - 0.03 in Snow Light Snow
3:52 PM 33.8 °F 24.3 °F 32.0 °F 93% 30.12 in 0.8 mi NW 13.8 mph - 0.03 in Snow Light Snow
3:56 PM 33.1 °F 24.4 °F 32.0 °F 96% 30.18 in 0.8 mi NW 11.5 mph - 0.04 in Snow Light Snow
4:17 PM 33.8 °F 24.8 °F 32.0 °F 93% 30.13 in 0.8 mi NNW 12.7 mph - 0.01 in Snow Light Snow
4:29 PM 33.8 °F 24.8 °F 32.0 °F 93% 30.14 in 1.2 mi NNW 12.7 mph - 0.02 in Snow Light Snow
4:41 PM 33.8 °F 25.3 °F 32.0 °F 93% 30.15 in 3.0 mi NNW 11.5 mph - 0.02 in Snow Light Snow
4:56 PM 34.0 °F 24.6 °F 32.0 °F 92% 30.22 in 3.0 mi NNW 13.8 mph - 0.02 in Snow Light Snow
5:05 PM 33.8 °F 24.8 °F 32.0 °F 93% 30.17 in 2.0 mi NNW 12.7 mph - 0.00 in Snow Light Snow
5:17 PM 33.8 °F 25.3 °F 32.0 °F 93% 30.17 in 1.5 mi NNW 11.5 mph - 0.00 in Snow Light Snow
5:33 PM 33.8 °F 24.3 °F 32.0 °F 93% 30.18 in 2.5 mi NNW 13.8 mph - 0.01 in Snow Light Snow
5:52 PM 33.8 °F 25.3 °F 32.0 °F 93% 30.19 in 1.2 mi NNW 11.5 mph - 0.01 in Snow Light Snow
5:56 PM 33.1 °F 23.9 °F 32.0 °F 96% 30.26 in 1.2 mi NNW 12.7 mph - 0.02 in Snow Light Snow
6:10 PM 33.8 °F 25.8 °F 32.0 °F 93% 30.20 in 3.0 mi NNW 10.4 mph - 0.00 in Snow Light Snow
6:21 PM 33.8 °F 25.8 °F 32.0 °F 93% 30.20 in 2.0 mi NNW 10.4 mph - 0.00 in Snow Light Snow
6:34 PM 33.8 °F 25.3 °F 32.0 °F 93% 30.21 in 4.0 mi NNW 11.5 mph - 0.01 in Snow Light Snow
6:56 PM 34.0 °F 26.6 °F 33.1 °F 96% 30.28 in 9.0 mi NNW 9.2 mph - 0.01 in Snow Light Snow
7:56 PM 34.0 °F 25.0 °F 33.1 °F 96% 30.30 in 7.0 mi NNW 12.7 mph - 0.01 in Snow Light Snow
8:56 PM 34.0 °F 26.0 °F 33.1 °F 96% 30.32 in 5.0 mi NNW 10.4 mph - 0.02 in Snow Light Snow
9:56 PM 34.0 °F 24.6 °F 33.1 °F 96% 30.34 in 7.0 mi NNW 13.8 mph - 0.01 in Snow Light Snow
10:56 PM 34.0 °F 25.0 °F 32.0 °F 92% 30.36 in 7.0 mi NNW 12.7 mph - 0.00 in Snow Light Snow
11:56 PM 34.0 °F 24.2 °F 32.0 °F 92% 30.38 in 7.0 mi NW 15.0 mph 21.9 mph 0.00 in Snow Light Snow